Wind_Speed
12 12 13 13 13 14 14 14 15 15 15 16 17 18 18 19 19 20 20 20 21 22 22 23 24 24 25 26 27 27 28 29 30 30 30 30 30 30
12 12 13 13 14 14 14 15 15 15 16 17 17 18 19 20 20 21 21 21 21 22 23 24 24 25 26 27 27 27 28 29 30 30 30 30 30 31
11 12 12 13 13 14 14 14 15 16 17 17 19 19 20 20 21 21 22 22 23 24 24 25 25 26 27 27 28 28 29 29 29 30 31 31 31 31
12 13 13 14 14 15 15 15 16 17 17 18 19 20 20 20 20 22 23 23 24 25 25 25 26 27 27 28 28 29 30 31 31 32 32 33 33 33
13 13 14 15 15 15 16 16 17 17 18 19 20 21 21 21 22 22 23 24 24 25 26 27 28 28 28 28 29 30 30 31 32 32 33 34 34 34
14 15 15 16 16 16 17 17 18 18 19 19 20 20 21 22 23 23 24 25 25 26 27 27 27 28 29 30 31 31 31 32 32 32 33 33 34 34
15 16 16 17 18 18 18 19 19 20 20 20 20 20 21 22 23 24 25 25 26 27 27 28 28 29 30 31 31 32 32 33 33 34 34 35 35 36
16 17 17 18 18 19 20 20 20 20 20 20 21 21 22 23 23 25 26 26 27 28 28 29 30 30 31 32 32 33 34 34 35 35 36 36 36 37
18 18 19 20 20 20 21 21 21 21 22 23 23 24 24 25 25 26 27 28 29 30 30 31 32 32 33 34 34 35 36 36 37 37 37 37 37 37
20 20 20 21 22 22 22 22 23 23 24 24 25 26 26 27 28 29 30 30 31 32 33 33 33 34 34 34 35 37 37 37 37 37 37 37 36 36
20 22 22 22 23 24 24 25 25 26 26 26 27 28 28 30 30 31 31 31 32 33 34 34 34 34 34 35 36 36 37 37 36 36 36 36 36 35
22 22 23 23 24 24 24 25 26 27 27 28 28 29 30 30 31 31 32 32 33 33 34 35 35 35 35 35 36 36 35 35 35 35 35 35 34 34
23 23 24 24 24 25 25 26 27 28 29 29 30 30 30 31 31 32 33 33 33 34 34 34 34 34 35 35 35 35 34 35 35 35 35 34 33 33
23 24 25 26 27 27 28 28 29 30 30 31 31 31 31 31 32 32 33 33 33 34 34 34 34 35 35 35 35 34 34 34 34 34 34 33 33 32
24 25 26 27 28 29 29 30 30 31 31 31 31 31 31 32 32 33 33 33 33 34 34 34 35 35 35 35 35 35 34 33 33 33 32 32 32 32
25 26 27 28 29 29 30 31 31 31 31 31 31 31 32 32 33 34 34 34 34 34 34 34 34 34 34 35 35 34 34 33 33 32 32 31 31 31
26 27 28 29 29 30 31 32 32 32 32 32 33 33 33 33 34 35 35 35 35 35 34 35 35 35 35 34 34 33 33 32 31 31 31 31 31 31
27 28 29 30 31 32 32 32 32 33 33 34 34 34 34 34 34 35 35 35 35 35 35 34 34 33 33 32 32 32 31 30 30 30 30 30 30 30
28 29 30 31 32 33 33 33 33 34 34 35 35 35 35 35 35 35 35 35 35 34 34 33 33 33 33 32 31 31 30 29 29 29 29 29 29 28
30 31 31 32 32 33 33 33 34 34 35 35 35 35 35 35 36 35 35 34 34 33 33 33 32 32 31 31 31 30 29 29 29 29 28 28 28 28
31 32 32 32 32 32 33 34 34 35 35 35 34 34 35 35 35 35 34 34 33 33 32 32 31 31 31 31 30 30 30 30 29 29 29 28 28 27
31 32 32 33 32 33 34 34 35 35 35 35 35 35 35 35 35 35 34 34 33 32 31 31 31 31 31 30 30 30 29 29 29 29 29 28 27 26
32 33 34 34 33 34 34 35 36 36 36 35 35 35 35 35 35 34 34 33 32 32 31 31 31 31 31 30 29 29 29 29 28 28 27 27 27 27
Wind_Direction
313 311 310 308 305 304 301 294 293 293 294 293 294 296 296 295 294 293 293 292 294 295 293 293 293 292 292 291 289 288 288 287 287 286 286 287 286 284
312 313 315 315 310 308 304 298 294 295 296 296 295 296 295 296 296 294 296 298 299 299 297 296 294 294 292 292 291 290 290 290 288 286 286 287 286 285
316 318 317 317 319 318 315 310 304 300 299 300 303 301 299 298 296 296 299 300 300 299 297 296 296 296 295 294 292 291 290 291 291 288 287 287 287 285
315 315 314 315 314 316 315 313 311 306 304 303 303 303 303 302 301 301 301 302 301 300 299 297 297 297 297 297 296 294 293 292 291 290 289 288 287 285
314 317 316 315 314 312 314 314 314 310 308 304 302 302 304 304 302 302 302 302 302 301 300 298 297 296 297 297 297 296 295 294 293 293 292 290 289 287
313 316 316 315 315 315 314 314 314 312 310 308 304 304 303 304 302 303 304 303 302 302 301 300 299 298 297 296 296 295 294 294 294 294 293 291 291 289
314 315 314 315 315 316 316 316 316 315 313 313 310 307 306 306 304 305 305 305 305 305 304 304 303 300 297 298 298 297 296 296 296 295 293 291 291 289
316 317 316 315 315 314 314 314 315 315 314 313 309 308 307 306 304 306 306 306 306 307 306 306 306 305 304 301 300 299 299 297 296 295 293 293 292 290
312 313 314 314 313 312 312 314 314 314 313 311 309 307 307 305 304 305 305 305 304 304 305 305 304 304 303 302 302 302 301 299 297 296 295 294 293 292
312 313 313 312 312 311 310 311 312 311 309 307 306 306 305 304 304 305 305 305 305 305 305 305 304 304 303 303 302 302 301 300 299 298 298 297 296 294
312 313 314 314 314 313 312 311 311 310 308 307 307 306 305 304 305 306 306 306 306 306 306 305 304 304 304 303 303 303 303 302 300 300 299 299 297 296
311 312 314 315 316 315 313 312 311 310 309 308 308 307 306 306 306 306 307 307 306 306 306 305 305 305 305 305 305 304 303 302 301 301 300 300 299 297
311 312 313 315 316 316 316 315 313 312 312 311 309 307 306 306 307 306 306 306 306 306 307 306 306 305 305 305 305 305 303 303 302 301 300 300 299 298
311 313 314 314 313 315 315 314 314 313 312 312 310 308 307 307 308 308 308 308 307 307 307 306 305 305 304 304 304 304 303 303 302 301 300 300 299 298
312 314 314 314 315 315 315 315 314 314 313 312 312 310 309 309 309 309 309 308 307 306 306 306 305 305 305 304 304 304 304 303 302 301 301 300 299 298
312 314 315 315 315 316 316 315 315 315 314 312 311 310 309 309 308 308 308 307 306 305 305 306 305 305 305 305 305 305 304 304 303 303 303 302 301 301
313 314 316 316 316 316 316 315 315 314 314 313 311 311 310 309 308 308 308 307 306 305 304 305 305 304 304 305 305 306 306 307 306 305 304 303 303 303
313 314 315 315 316 317 316 315 314 314 313 312 311 311 310 310 309 309 308 308 307 307 305 305 304 304 305 305 306 307 307 307 308 308 308 307 306 305
313 313 314 316 317 317 317 316 315 314 313 312 311 310 311 311 311 311 310 309 308 307 307 307 307 306 306 306 307 308 308 308 308 308 308 308 308 307
312 313 314 315 317 318 317 316 316 315 314 313 312 312 311 311 312 311 311 310 309 308 308 308 308 308 307 307 307 307 308 308 307 307 307 307 307 307
311 312 313 315 316 317 316 316 316 315 314 313 313 313 313 312 312 311 311 311 310 309 309 309 308 309 309 308 307 306 307 306 307 308 308 307 307 306
311 312 313 314 315 316 316 316 316 315 314 313 313 312 312 311 311 311 311 311 311 310 309 309 309 310 310 309 308 307 307 307 307 308 307 307 307 307
309 310 311 312 313 314 315 314 314 315 315 314 313 312 311 311 312 312 313 312 311 311 310 310 310 309 309 309 308 308 308 308 308 308 307 306 307 307
Height
5886 5885 5883 5882 5881 5879 5878 5877 5877 5876 5875 5874 5873 5872 5870 5868 5866 5865 5864 5863 5862 5860 5858 5857 5855 5853 5852 5850 5848 5846 5844 5843 5841 5839 5837 5836 5834 5832
5884 5882 5881 5879 5877 5876 5875 5874 5873 5872 5871 5870 5868 5867 5865 5864 5862 5860 5859 5858 5856 5854 5853 5851 5849 5847 5845 5843 5841 5839 5837 5835 5833 5831 5829 5827 5825 5823
5881 5880 5878 5877 5875 5874 5872 5870 5869 5868 5866 5865 5863 5862 5860 5859 5857 5855 5854 5852 5850 5848 5846 5845 5843 5840 5838 5836 5834 5832 5830 5827 5825 5823 5821 5819 5817 5815
5879 5878 5876 5874 5872 5870 5869 5867 5865 5863 5862 5861 5859 5857 5855 5854 5852 5850 5848 5846 5844 5842 5840 5838 5836 5833 5831 5829 5826 5824 5822 5819 5817 5814 5812 5810 5808 5805
5877 5875 5873 5872 5870 5868 5866 5864 5861 5860 5858 5856 5854 5852 5850 5848 5847 5845 5843 5840 5838 5836 5833 5831 5828 5826 5823 5821 5818 5816 5813 5811 5808 5806 5803 5801 5798 5796
5874 5872 5871 5869 5866 5864 5862 5860 5858 5855 5853 5852 5850 5847 5845 5843 5841 5838 5836 5834 5832 5830 5827 5824 5821 5818 5815 5813 5810 5808 5805 5802 5799 5796 5794 5791 5788 5786
5871 5869 5867 5865 5863 5861 5859 5856 5854 5851 5849 5847 5845 5843 5840 5837 5835 5832 5830 5828 5825 5823 5820 5817 5814 5811 5808 5805 5802 5799 5796 5793 5790 5787 5784 5781 5778 5776
5868 5866 5864 5862 5860 5857 5855 5852 5850 5847 5845 5842 5840 5837 5835 5832 5829 5827 5824 5822 5819 5816 5812 5809 5806 5803 5799 5796 5793 5789 5786 5783 5780 5777 5774 5770 5767 5765
5864 5863 5860 5858 5856 5853 5851 5848 5845 5842 5840 5837 5835 5832 5829 5826 5823 5820 5817 5814 5811 5808 5805 5801 5798 5795 5791 5787 5783 5780 5776 5773 5770 5766 5763 5759 5756 5753
5861 5859 5856 5854 5851 5849 5846 5844 5841 5838 5835 5832 5829 5826 5822 5820 5817 5814 5810 5806 5803 5799 5796 5793 5789 5786 5782 5778 5774 5771 5767 5763 5759 5755 5752 5748 5745 5742
5857 5854 5852 5849 5846 5844 5841 5838 5835 5832 5829 5826 5823 5819 5816 5813 5809 5806 5802 5799 5795 5791 5787 5784 5780 5777 5773 5769 5765 5761 5757 5753 5749 5745 5742 5738 5735 5732
5853 5850 5847 5844 5841 5839 5836 5833 5829 5826 5822 5819 5816 5812 5809 5805 5802 5798 5794 5790 5787 5783 5779 5775 5771 5768 5764 5760 5756 5752 5747 5743 5740 5736 5732 5729 5725 5722
5848 5845 5842 5840 5837 5833 5830 5827 5823 5820 5816 5812 5809 5805 5802 5798 5794 5790 5786 5782 5778 5774 5770 5766 5762 5758 5754 5751 5747 5742 5738 5734 5730 5727 5723 5719 5716 5713
5843 5840 5837 5834 5831 5828 5824 5821 5817 5813 5809 5805 5801 5798 5794 5790 5786 5782 5777 5773 5769 5765 5761 5757 5753 5749 5745 5741 5737 5733 5729 5725 5721 5717 5714 5710 5706 5703
5838 5835 5832 5829 5825 5822 5818 5814 5810 5806 5802 5798 5794 5790 5786 5782 5778 5773 5769 5765 5761 5756 5752 5748 5744 5740 5735 5731 5727 5724 5720 5716 5712 5708 5705 5701 5698 5694
5833 5829 5826 5823 5819 5815 5811 5807 5803 5799 5795 5791 5786 5782 5778 5774 5770 5765 5761 5756 5752 5747 5743 5739 5734 5731 5726 5722 5718 5714 5710 5707 5703 5699 5696 5692 5688 5685
5827 5824 5820 5817 5813 5809 5805 5800 5796 5792 5787 5783 5778 5774 5770 5766 5761 5756 5752 5748 5743 5739 5735 5730 5726 5721 5717 5714 5709 5705 5702 5698 5694 5690 5687 5684 5680 5676
5821 5818 5814 5810 5806 5802 5798 5793 5789 5784 5780 5775 5771 5766 5762 5757 5752 5748 5743 5739 5734 5730 5726 5721 5717 5713 5709 5705 5701 5697 5693 5690 5686 5682 5679 5675 5672 5668
5815 5811 5807 5803 5799 5795 5790 5786 5781 5777 5772 5767 5762 5758 5753 5748 5744 5739 5735 5730 5726 5721 5717 5713 5709 5705 5701 5697 5693 5689 5686 5682 5678 5675 5671 5667 5664 5660
5808 5804 5800 5796 5792 5787 5783 5778 5773 5769 5764 5759 5754 5750 5745 5740 5735 5731 5726 5722 5717 5713 5709 5705 5700 5696 5692 5689 5685 5682 5678 5674 5671 5667 5663 5660 5656 5652
5801 5797 5793 5789 5784 5780 5775 5770 5766 5761 5756 5751 5746 5741 5737 5732 5727 5722 5718 5713 5709 5705 5701 5697 5692 5688 5684 5681 5677 5674 5670 5666 5663 5659 5656 5652 5649 5645
5793 5789 5785 5781 5777 5772 5767 5762 5758 5753 5748 5743 5738 5733 5729 5724 5719 5714 5709 5705 5701 5697 5693 5689 5685 5681 5677 5673 5670 5666 5663 5659 5655 5651 5648 5644 5641 5637
5785 5782 5778 5773 5769 5764 5759 5754 5749 5744 5740 5735 5730 5725 5720 5715 5711 5706 5702 5697 5693 5689 5685 5681 5677 5673 5669 5666 5662 5658 5655 5651 5648 5644 5641 5637 5634 5630